Flag for Puerto Rico Weather past 2 weeks in San Juan, Puerto Rico

Now
80 °F

Passing clouds.


Feels Like: 85 °F
Forecast: 80 / 87 °F
Wind: 5 mph from Southeast

Location: Luis Munoz Marin

Current Time: Jul 7, 2015 at 2:58:49 AM

Latest Report: Jul 7, 2015 at 1:56 AM


Visibility: 10 mi

Pressure: 30.04 "Hg

Humidity: 81%

Dew point: 74 °F

Location of San JuanLocation

Historic Weather in San Juan — Graph

°F

San Juan temperature yesterday

Maximum temperature yesterday: 88 °F (at 10:56 AM)
Minimum temperature yesterday: 79 °F (at 1:56 AM)
Average temperature yesterday: 83 °F

Past Weeks' High & Low Weather Summary

 TemperatureHumidityPressure
High91 °F (Jun 27, 1:56 PM)97% (Jun 27, 4:56 AM)30.17 "Hg (Jun 27, 4:56 AM)
Low75 °F (Jun 22, 3:04 PM)52% (Jun 27, 1:56 PM)30.02 "Hg (Jul 3, 3:56 PM)
Average83 °F77%30.10 "Hg
* Reported Jun 22 1:56 AM — Jul 7 1:56 AM, San Juan, Weather by CustomWeather, © 2015

Note: Actual official high and low records may vary slightly from our data, if they occured in-between our weather recording intervals... More about our weather records

Advertising

San Juan weather history for previous 24 hours

 ConditionsComfort  
Time TempWeatherWind HumidityBarometerVisibility
1:56 AM
Tue, Jul 7
80 °FPassing clouds.5 mph81%30.04 "Hg10 mi
12:56 AM81 °FPassing clouds.6 mph82%30.05 "Hg10 mi
11:56 PM
Mon, Jul 6
81 °FPassing clouds.8 mph82%30.07 "Hg10 mi
10:56 PM80 °FPassing clouds.8 mph85%30.07 "Hg10 mi
9:56 PM82 °FPassing clouds.9 mph77%30.08 "Hg10 mi
8:56 PM82 °FPassing clouds.13 mph79%30.07 "Hg10 mi
7:56 PM82 °FPassing clouds.13 mph79%30.07 "Hg10 mi
6:56 PM83 °FScattered clouds.13 mph77%30.06 "Hg10 mi
5:56 PM84 °FScattered clouds.17 mph74%30.04 "Hg10 mi
4:56 PM85 °FScattered clouds.20 mph75%30.03 "Hg10 mi
3:56 PM86 °FScattered clouds.21 mph70%30.04 "Hg10 mi
2:56 PM88 °FScattered clouds.21 mph65%30.06 "Hg10 mi
1:56 PM87 °FPassing clouds.21 mph69%30.06 "Hg10 mi
12:56 PM88 °FPassing clouds.20 mph65%30.07 "Hg10 mi
11:56 AM88 °FScattered clouds.17 mph70%30.08 "Hg10 mi
10:56 AM88 °FPassing clouds.14 mph70%30.09 "Hg10 mi
9:56 AM86 °FScattered clouds.15 mph72%30.09 "Hg10 mi
8:56 AM85 °FScattered clouds.15 mph75%30.08 "Hg10 mi
7:56 AM82 °FScattered clouds.7 mph82%30.08 "Hg10 mi
6:56 AM80 °FScattered clouds.6 mph87%30.07 "Hg10 mi
5:56 AM79 °FPassing clouds.No wind88%30.05 "Hg10 mi
4:56 AM79 °FPassing clouds.No wind88%30.05 "Hg10 mi
3:56 AM79 °FPassing clouds.No wind88%30.05 "Hg10 mi
2:56 AM79 °FPassing clouds.5 mph88%30.04 "Hg10 mi
Weather by CustomWeather, © 2015

See weather overviewHow to use our weather pages